[Iaude] MPEC A15: 2017 AE3 [a=1.84,e=0.64,i=9.5,H=21.8,PHA]

mpec at si.edu mpec at si.edu
Wed Jan 4 17:49:51 EST 2017


M.P.E.C. 2017-A15                                Issued 2017 Jan. 4, 22:45 UT
 
     The Minor Planet Electronic Circulars contain information on unusual
         minor planets and routine data on comets.  They are published
    on behalf of Division F of the International Astronomical Union by the
          Minor Planet Center, Smithsonian Astrophysical Observatory,
                          Cambridge, MA 02138, U.S.A.

             Prepared using the Tamkin Foundation Computer Network

                              MPC at CFA.HARVARD.EDU
            URL http://www.minorplanetcenter.net/    ISSN 1523-6714


                                   2017 AE3
 
Observations:
     K17A03E* C2017 01 02.43246 06 19 15.90 -15 41 17.4          17.5 wLEA015T05
     K17A03E  C2017 01 02.44587 06 19 18.21 -15 37 59.4          17.5 wLEA015T05
     K17A03E  C2017 01 02.45978 06 19 20.58 -15 34 35.7          16.9 wLEA015T05
     K17A03E  C2017 01 02.47391 06 19 23.02 -15 31 09.0          16.9 wLEA015T05
     K17A03E KC2017 01 02.86629 06 20 54.69 -14 02 58.6                qEA015J95
     K17A03E KC2017 01 02.87246 06 20 55.72 -14 01 40.6                qEA015J95
     K17A03E KC2017 01 02.87828 06 20 56.72 -14 00 27.4          17.3 RqEA015J95
     K17A03E KC2017 01 02.92352 06 21 04.07 -13 50 59.6          17.3 VqEA015J69
     K17A03E KC2017 01 02.92789 06 21 04.76 -13 50 05.1          17.1 VqEA015J69
     K17A03E KC2017 01 02.93226 06 21 05.44 -13 49 10.8          17.0 VqEA015J69
     K17A03E KC2017 01 02.93663 06 21 06.26 -13 48 09.7          16.8 VqEA015I93
     K17A03E KC2017 01 02.93663 06 21 06.13 -13 48 16.5          17.0 VqEA015J69
     K17A03E KC2017 01 02.94201 06 21 07.07 -13 47 02.8          16.7 VqEA015I93
     K17A03E KC2017 01 02.94594 06 21 07.67 -13 46 13.9          16.8 VqEA015I93
     K17A03E KC2017 01 02.95154 06 21 08.51 -13 45 05.0          16.9 VqEA015I93
     K17A03E KC2017 01 03.25053 06 22 04.00 -12 45 51.2          16.5 RoEA015291
     K17A03E KC2017 01 03.25225 06 22 04.23 -12 45 31.8          16.8 RoEA015291
     K17A03E KC2017 01 03.25398 06 22 04.44 -12 45 12.4          17.1 RoEA015291
     K17A03E  C2017 01 03.29742 06 22 09.77 -12 37 06.0          17.8 RoEA015926
     K17A03E  C2017 01 03.29994 06 22 10.07 -12 36 38.0          17.8 RoEA015926
     K17A03E  C2017 01 03.30248 06 22 10.39 -12 36 09.8          17.5 RoEA015926
     K17A03E  C2017 01 03.32439 06 22 13.09 -12 32 06.8          17.1 RoEA015926
     K17A03E  C2017 01 03.32683 06 22 13.40 -12 31 39.8          17.2 RoEA015926
     K17A03E  C2017 01 03.33010 06 22 13.80 -12 31 03.7          16.9 RoEA015926
     K17A03E |C2017 01 03.44675 06 22 40.39 -12 07 44.8          17.0 RrEA015Q62
     K17A03E |C2017 01 03.45737 06 22 41.75 -12 05 52.9          16.9 RrEA015Q62
     K17A03E |C2017 01 03.46798 06 22 43.09 -12 04 02.4          17.0 RrEA015Q62
     K17A03E  C2017 01 03.48210 06 22 46.17 -12 03 46.8          17.2 RoEA015300
     K17A03E  C2017 01 03.48371 06 22 46.41 -12 03 30.3          17.6 RoEA015300
     K17A03E  C2017 01 03.48533 06 22 46.61 -12 03 13.3          17.5 RoEA015300
     K17A03E KC2017 01 03.48595 06 22 44.91 -12 00 50.7          17.6 VqEA015E23
     K17A03E 2C2017 01 03.48618 06 22 45.23 -12 00 53.0          17.6  qEA015Q62
     K17A03E  C2017 01 03.48856 06 22 47.01 -12 02 39.7          18.1 RoEA015300
     K17A03E 2C2017 01 03.48986 06 22 45.71 -12 00 13.8          17.5  qEA015Q62
     K17A03E  C2017 01 03.49017 06 22 47.19 -12 02 23.0          18.0 RoEA015300
     K17A03E KC2017 01 03.49193 06 22 45.63 -11 59 48.4          17.9 VqEA015E23
     K17A03E KC2017 01 03.49656 06 22 46.19 -11 59 00.3                qEA015E23
     K17A03E KC2017 01 03.50119 06 22 46.72 -11 58 12.1          17.3 VqEA015E23
     K17A03E 5C2017 01 03.59439 06 22 57.53 -11 42 18.0          17.7 RqEA015Q62
     K17A03E 5C2017 01 03.59697 06 22 57.79 -11 41 52.2          17.9 RqEA015Q62
     K17A03E 5C2017 01 03.60228 06 22 58.39 -11 40 58.0          17.4 RqEA015Q62
     K17A03E KC2017 01 03.81975 06 23 36.92 -11 07 42.1          17.6 VSEA015595
     K17A03E KC2017 01 03.82148 06 23 37.16 -11 07 26.1                SEA015595
     K17A03E KC2017 01 03.82321 06 23 37.36 -11 07 10.2                SEA015595
     K17A03E KC2017 01 03.83657 06 23 39.19 -11 05 01.5          15.8 RqEA015160
     K17A03E KC2017 01 03.83869 06 23 39.49 -11 04 40.7          15.8 RqEA015160
     K17A03E KC2017 01 03.84080 06 23 39.75 -11 04 20.8          17.2 RqEA015160
     K17A03E KC2017 01 03.85069 06 23 40.87 -11 02 47.0          16.9 RqEA015160
     K17A03E KC2017 01 03.85302 06 23 41.12 -11 02 26.2          17.0 RqEA015160
     K17A03E KC2017 01 03.85521 06 23 41.35 -11 02 05.6          16.9 RqEA015160
     K17A03E KC2017 01 03.95276 06 23 52.00 -10 47 02.0                UEA015204
     K17A03E KC2017 01 03.95678 06 23 52.42 -10 46 25.2                UEA015204
     K17A03E KC2017 01 03.95890 06 23 52.64 -10 46 05.7          17.4 GUEA015204
     K17A03E KC2017 01 03.96165 06 23 52.93 -10 45 40.5                UEA015204
     K17A03E KC2017 01 03.96514 06 23 53.30 -10 45 08.5                UEA015204
     K17A03E KC2017 01 03.97615 06 23 54.49 -10 43 27.8          17.3 GUEA015K38
     K17A03E KC2017 01 03.99019 06 23 55.91 -10 41 19.4          17.1 GUEA015K38
     K17A03E KC2017 01 04.00359 06 23 57.29 -10 39 17.6          17.3 GUEA015K38
     K17A03E KC2017 01 04.32442506 24 37.80 -09 52 44.6          17.3 VuEA015H21
     K17A03E KC2017 01 04.32578706 24 37.95 -09 52 33.3          17.2 VuEA015H21
     K17A03E KC2017 01 04.32714806 24 38.07 -09 52 21.6          17.5 VuEA015H21
     K17A03E KC2017 01 04.32884506 24 38.24 -09 52 07.6          17.7 VuEA015H21
     K17A03E KC2017 01 04.86885 06 25 47.66 -08 42 33.9          17.1 RqEA015K65
     K17A03E KC2017 01 04.87803 06 25 48.40 -08 41 28.2          17.1 RqEA015K65
     K17A03E KC2017 01 04.89223 06 25 50.43 -08 39 41.7          17.8 RtEA015B49
     K17A03E KC2017 01 04.89722 06 25 50.84 -08 39 06.2          17.6 RtEA015B49
     K17A03E KC2017 01 04.90287 06 25 51.12 -08 38 36.2                qEA015J95
     K17A03E KC2017 01 04.90726 06 25 51.51 -08 38 05.0                qEA015J95
     K17A03E KC2017 01 04.90799 06 25 51.68 -08 37 49.7          16.8 RtEA015B49
     K17A03E KC2017 01 04.90989 06 25 51.73 -08 37 46.4          17.6 RqEA015J95
     K17A03E KC2017 01 04.91522 06 25 51.26 -08 37 01.6          17.5 RqEA015K65
 
Observer details:
160 Castelmartini.  Observers M. Jaeger, E. Prosperi, S. Prosperi, W. Vollmann.
    Measurer E. Prosperi.  0.35-m f/10 Schmidt-Cassegrain + CCD.
204 Schiaparelli Observatory.  Observers L. Buzzi, G. Galli.  0.60-m f/4.64
    reflector + CCD.
291 LPL/Spacewatch II.  Observer R. S. McMillan.  1.8-m f/2.7 reflector + CCD.
300 Bisei Spaceguard Center--BATTeRS.  Observers S. Okumura, T. Fujiwara.
    1.0-m f/3.0 reflector + CCD.
595 Farra d'Isonzo.  Observer E. Pettarin.  0.61-m f/4.0 reflector + CCD.
926 Tenagra II Observatory.  Observers M. Schwartz, P. R. Holvorcem.  Measurer
    M. Schwartz.  0.81-m f/7 Ritchey-Chretien + CCD.
B49 Paus Observatory, Sabadell.  Observer J. Camarasa.  0.30-m f/4 Newtonian
    reflector + CCD.
E23 Arcadia.  Observer A. Hidas.  0.35-m f/1.9 reflector + CCD.
H21 Astronomical Research Observatory, Westfield.  Observer R. Holmes.
    Measurers S. Foglia, L. Buzzi, T. Linder, R. Holmes.  0.76-m f/3.0
    astrograph + CCD.
I93 St Pardon de Conques.  Observer F. Losse.  0.40-m f/3.7 reflector + CCD.
J69 North Observatory, Clanfield.  Observer D. Briggs.  0.41-m f/4.5 Newtonian
    reflector + CCD.
J95 Great Shefford.  Observer P. Birtwhistle.  0.40-m f/6.0 Schmidt-Cassegrain
    + CCD.
K38 M57 Observatory, Saltrio.  Observer G. Baj.  0.30-m f/8 Ritchey-Chretien
    + CCD.
K65 Cesena.  Observers V. Tinella, N. A. R. O. Nicolini Astronomical Robotic
    Observatory.  Measurer V. Tinella.  0.40-m f/7 Schmidt-Cassegrain + CCD.
Q62 iTelescope Observatory, Siding Spring.  Observers L. Buzzi, P. Concari,
    C. Cremaschini, S. Foglia, G. Galli, M. Tombelli, M. Urbanik, C. Jacques,
    E. Pimentel, J. Barros.  Measurers L. Buzzi, P. Concari, C. Cremaschini,
    S. Foglia, G. Galli, M. Tombelli, M. Urbanik, C. Jacques.  0.15-m f/7
    refractor + CCD, 0.43-m f/6.8 astrograph + CCD, 0.43-m f/6.8 reflector
    + CCD.
T05 ATLAS-HKO, Haleakala.  Observers L. Denneau, A. Heinze, H. Weiland,
    B. Stalder, J. Tonry, A. Sherstyuk.  Measurers L. Denneau, A. Heinze,
    J. Tonry.  0.5-m f/2.0 Schmidt + CCD.
 
Orbital elements:
2017 AE3                                            PHA, Earth MOID = 0.0214 AU
Epoch 2017 Feb. 16.0 TT = JDT 2457800.5                 MPC
M  37.53078              (2000.0)            P               Q
n   0.39555469     Peri.  107.36581     +0.94367514     -0.28701222
a   1.8379415      Node   269.55709     +0.20465637     +0.89726938
e   0.6396057      Incl.    9.47571     +0.25998653     +0.33545737
P   2.49           H   21.8           G   0.15           U   7
Residuals in seconds of arc
170102 T05  0.1+  0.2-    170103 Q62  0.2-  0.2+    170103 160  0.2-  0.3-
170102 T05  0.2+  0.2+    170103 Q62  0.0   0.7+    170103 160  0.4-  0.3-
170102 T05  0.1-  0.3-    170103 Q62  0.4+  0.1+    170103 204  0.1+  0.1+
170102 T05  0.1-  0.3-    170103 300  0.5-  0.3+    170103 204  0.1+  0.0
170102 J95  0.2+  0.0     170103 300  0.0   0.1+    170103 204  0.1+  0.1+
170102 J95  0.0   0.0     170103 300  0.1-  0.2+    170103 204  0.1+  0.0
170102 J95  0.3+  0.2-    170103 E23  0.2-  0.2-    170103 204  0.2+  0.1+
170102 J69  0.2+  0.4+    170103 Q62  0.6-  0.4-    170103 K38  0.6+  0.4-
170102 J69  0.1+  0.5+    170103 300  0.3-  0.2+    170103 K38  0.1+  0.1-
170102 J69  0.0   0.5+    170103 Q62  0.0   0.5+    170104 K38  0.1-  0.3-
170102 I93  0.0   0.1-    170103 300  0.7-  0.2+    170104 H21  0.1-  0.0
170102 J69  0.0   0.5+    170103 E23  0.1-  0.2-    170104 H21  0.2+  0.0
170102 I93  0.1-  0.0     170103 E23  0.1+  0.3-    170104 H21  0.0   0.3+
170102 I93  0.0   0.3+    170103 E23  0.2-  0.2-    170104 H21  0.1+  0.1+
170102 I93  0.0   0.1-    170103 Q62  0.0   0.4+    170104 K65  0.1+  0.2-
170103 291  0.3-  0.1-    170103 Q62  0.4-  0.1-    170104 K65  0.3+  0.5-
170103 291  0.1-  0.0     170103 Q62  0.2-  0.1+    170104 B49  0.0   0.3+
170103 291  0.3-  0.1-    170103 595  0.1-  0.5+    170104 B49  0.3+  0.1+
170103 926  0.0   0.1-    170103 595  0.4+  0.1+    170104 J95  0.2-  0.2+
170103 926  0.2-  0.1-    170103 595  0.3+  0.4-    170104 J95  0.1+  0.0
170103 926  0.0   0.2-    170103 160  0.9-  0.9-    170104 B49  0.3+  0.2-
170103 926  0.0   0.1-    170103 160  0.1-  0.1-    170104 J95  0.2+  0.1-
170103 926  0.1+  0.1-    170103 160  0.1+  0.1-    170104 K65  0.1-  0.1-
170103 926  0.1+  0.1-    170103 160  0.0   0.8+

Ephemeris:
2017 AE3                 a,e,i = 1.84, 0.64, 9                   q = 0.6624
Date    TT    R. A. (2000) Decl.     Delta      r     Elong.  Phase     V
2016 12 05    18 36 31.0 -11 42 29   0.2742  0.7553    28.3   141.8    25.5
...
2016 12 20    18 50 08.8 -18 40 53   0.09702 0.8901    14.2   164.2    29.2
...
2016 12 28    21 56 21.6 -74 05 17   0.02267 0.9715    57.7   121.2    18.5
...
2017 01 03    06 21 16.4 -13 33 21   0.06318 1.0343   142.7    35.2    17.3
2017 01 04    06 23 58.4 -10 38 19   0.07359 1.0448   145.5    32.2    17.6
2017 01 05    06 25 59.3 -08 25 45   0.08418 1.0554   147.6    29.9    17.8
...
2017 01 11    06 32 17.0 -01 37 30   0.1499  1.1187   152.7    23.8    19.0
...
2017 01 19    06 36 30.2 +02 02 45   0.2419  1.2027   151.9    22.7    20.2
...
2017 02 03    06 44 31.1 +05 27 36   0.4307  1.3564   143.5    25.6    21.8

A. U. Tomatic                (C) Copyright 2017 MPC           M.P.E.C. 2017-A15




More information about the Iaude mailing list